TimePDT,TemperatureF,Dew PointF,Humidity,Sea Level PressureIn,VisibilityMPH,Wind Direction,Wind SpeedMPH,Gust SpeedMPH,PrecipitationIn,Events,Conditions,WindDirDegrees,DateUTC
12:18 AM,59.0,53.6,82,29.64,10.0,SW,10.4,23.0,N/A,,Mostly Cloudy,220,2012-10-16 07:18:00
12:23 AM,59.0,53.6,82,29.64,10.0,SW,8.1,23.0,N/A,,Mostly Cloudy,220,2012-10-16 07:23:00
12:48 AM,57.2,55.4,94,29.64,10.0,SSW,6.9,-,N/A,,Mostly Cloudy,200,2012-10-16 07:48:00
12:58 AM,57.2,55.2,93,29.65,10.0,South,8.1,-,N/A,,Mostly Cloudy,190,2012-10-16 07:58:00
1:43 AM,57.2,51.8,82,29.67,10.0,SW,8.1,20.7,N/A,,Mostly Cloudy,220,2012-10-16 08:43:00
1:58 AM,55.9,51.4,85,29.69,10.0,SW,11.5,20.7,N/A,,Partly Cloudy,220,2012-10-16 08:58:00
2:58 AM,54.9,47.5,76,29.71,10.0,SW,20.7,39.1,N/A,,Clear,230,2012-10-16 09:58:00
3:58 AM,54.3,47.8,79,29.75,10.0,SW,10.4,21.9,N/A,,Partly Cloudy,220,2012-10-16 10:58:00
4:28 AM,55.4,48.2,77,29.76,10.0,SW,9.2,27.6,N/A,,Mostly Cloudy,230,2012-10-16 11:28:00
4:33 AM,53.6,48.2,82,29.76,10.0,SW,20.7,26.5,N/A,,Mostly Cloudy,230,2012-10-16 11:33:00
4:43 AM,53.6,46.4,77,29.77,10.0,WSW,13.8,31.1,N/A,,Mostly Cloudy,240,2012-10-16 11:43:00
4:48 AM,53.6,46.4,77,29.77,10.0,SW,16.1,31.1,N/A,,Mostly Cloudy,230,2012-10-16 11:48:00
4:58 AM,54.1,46.8,76,29.79,10.0,SW,10.4,27.6,N/A,,Scattered Clouds,230,2012-10-16 11:58:00
5:28 AM,53.6,44.6,72,29.79,10.0,SW,23.0,32.2,N/A,,Mostly Cloudy,230,2012-10-16 12:28:00
5:38 AM,53.6,44.6,72,29.80,10.0,WSW,24.2,32.2,N/A,,Scattered Clouds,240,2012-10-16 12:38:00
5:58 AM,53.1,44.2,72,29.81,10.0,SW,23.0,36.8,N/A,,Partly Cloudy,230,2012-10-16 12:58:00
6:58 AM,51.6,44.6,77,29.88,10.0,SW,8.1,23.0,N/A,,Scattered Clouds,220,2012-10-16 13:58:00
7:58 AM,50.9,41.0,69,29.92,10.0,SW,16.1,25.3,N/A,,Clear,220,2012-10-16 14:58:00
8:56 AM,53.6,41.0,62,29.97,10.0,SW,11.5,24.2,N/A,,Clear,220,2012-10-16 15:56:00
9:58 AM,55.2,43.3,64,30.03,10.0,SSW,11.5,18.4,N/A,,Clear,210,2012-10-16 16:58:00
10:58 AM,57.4,41.2,55,30.05,10.0,WSW,20.7,29.9,N/A,,Clear,240,2012-10-16 17:58:00
11:58 AM,58.1,43.5,58,30.08,10.0,SW,17.3,29.9,N/A,,Clear,220,2012-10-16 18:58:00
12:58 PM,59.5,43.7,56,30.10,10.0,SW,23.0,29.9,N/A,,Partly Cloudy,220,2012-10-16 19:58:00
1:58 PM,57.2,42.6,58,30.12,10.0,SW,23.0,31.1,N/A,,Clear,230,2012-10-16 20:58:00
2:58 PM,58.5,43.2,57,30.13,10.0,SW,18.4,28.8,N/A,,Clear,230,2012-10-16 21:58:00
3:06 PM,57.2,42.8,59,30.13,10.0,WSW,16.1,25.3,N/A,Rain,Light Rain,240,2012-10-16 22:06:00
3:19 PM,57.2,44.6,63,30.12,10.0,WSW,19.6,25.3,N/A,,Scattered Clouds,250,2012-10-16 22:19:00
3:58 PM,56.7,43.9,62,30.15,10.0,SW,18.4,26.5,0.00,,Clear,230,2012-10-16 22:58:00
4:58 PM,55.0,44.4,67,30.17,10.0,SSW,8.1,24.2,N/A,,Clear,200,2012-10-16 23:58:00
5:58 PM,54.3,45.7,73,30.19,10.0,SSW,6.9,-,N/A,,Clear,200,2012-10-17 00:58:00
6:58 PM,49.6,45.0,84,30.22,10.0,South,4.6,-,N/A,,Clear,180,2012-10-17 01:58:00
7:58 PM,50.0,45.1,83,30.24,10.0,South,9.2,-,N/A,,Clear,190,2012-10-17 02:58:00
8:58 PM,48.0,43.9,86,30.25,10.0,SSE,3.5,-,N/A,,Clear,160,2012-10-17 03:58:00
9:58 PM,44.6,41.9,90,30.27,10.0,SSE,2.3,-,N/A,,Clear,150,2012-10-17 04:58:00
10:58 PM,44.1,41.9,92,30.29,10.0,South,2.3,-,N/A,,Clear,190,2012-10-17 05:58:00
11:58 PM,42.3,40.6,94,30.30,10.0,SSE,1.2,-,N/A,,Clear,160,2012-10-17 06:58:00